Weather reports worldwide

Advertisment
Kleine Brogel, Belgium (6479): temperature & dewpoint: 09.01.2021 18:00:00 - 15.01.2021 18:00:00 (CET)Kleine Brogel, Belgium (6479): wind speed & gusts: 09.01.2021 18:00:00 - 15.01.2021 18:00:00 (CET)Kleine Brogel, Belgium (6479): wind direction: 09.01.2021 18:00:00 - 15.01.2021 18:00:00 (CET)Kleine Brogel, Belgium (6479): reduced air pressure: 09.01.2021 18:00:00 - 15.01.2021 18:00:00 (CET)Kleine Brogel, Belgium (6479): visibility: 09.01.2021 18:00:00 - 15.01.2021 18:00:00 (CET)
Date & Time tt [°C] td [°C] ff [km/h] ff [kn] fx [km/h] fx [kn] dd ppp [hPa] vv [km]
15.01.2021 18:00:00 0,4 -1,4 4 2 4 2 N 1030,2 15
15.01.2021 17:00:00 0,7 -1,3 4 2 7 4 N 1029,7 17
15.01.2021 16:00:00 - - - - - - - - -
15.01.2021 15:00:00 1,3 -1,3 7 4 14 8 NNW 1029,4 15
15.01.2021 14:00:00 - - - - - - - - -
15.01.2021 13:00:00 0,6 -1,2 7 4 - - NNW 1029,5 15
15.01.2021 12:00:00 0,4 -1,2 7 4 14 8 N 1029,2 15
15.01.2021 11:00:00 0,2 -1,3 7 4 11 6 N 1028,7 15
15.01.2021 10:00:00 0,0 -2,0 5 3 - - N - 10
15.01.2021 09:00:00 -0,2 -2,0 7 4 14 8 NNE 1027,2 20
15.01.2021 08:00:00 -0,3 -2,3 7 4 14 8 NNE 1026,2 20
15.01.2021 07:00:00 -0,6 -2,7 7 4 - - NNE 1025,7 20
15.01.2021 06:00:00 -0,9 -3,4 14 8 18 10 NNE 1025,0 20
15.01.2021 05:00:00 -1,1 -3,1 11 6 18 10 NNE 1024,4 19
15.01.2021 04:00:00 -1,5 -3,0 11 6 - - NNE 1023,7 19
15.01.2021 03:00:00 -0,9 -2,6 11 6 22 12 NE 1023,2 13
15.01.2021 02:00:00 -0,9 -3,0 11 6 22 12 NE 1022,2 18
15.01.2021 01:00:00 -0,5 -2,9 14 8 - - NE 1021,6 20
15.01.2021 00:00:00 -0,3 -2,6 14 8 22 12 ENE 1021,1 18
14.01.2021 23:00:00 0,2 -2,9 14 8 25 14 ENE 1020,5 16
14.01.2021 22:00:00 0,3 -2,4 14 8 - - ENE 1020,0 18
14.01.2021 21:00:00 0,1 -2,2 14 8 22 12 ENE 1019,2 20
14.01.2021 20:00:00 0,2 -2,0 14 8 18 10 ENE 1018,7 20
14.01.2021 19:00:00 1,2 -1,6 14 8 - - ENE 1018,2 20
14.01.2021 18:00:00 1,6 -1,8 11 6 25 14 E 1018,3 20
14.01.2021 17:00:00 1,7 -1,7 11 6 25 14 E 1018,2 20
14.01.2021 16:00:00 2,0 -1,5 14 8 - - E 1018,1 20
14.01.2021 15:00:00 2,2 -1,5 11 6 25 14 E 1018,1 20
14.01.2021 14:00:00 - - - - - - - - -
14.01.2021 13:00:00 2,0 -1,7 7 4 - - E 1019,2 18
14.01.2021 12:00:00 1,7 -1,0 7 4 14 8 E 1019,8 18
14.01.2021 11:00:00 1,6 -0,7 7 4 11 6 E 1020,2 17
14.01.2021 10:00:00 0,9 0,1 4 2 - - N 1020,1 15
14.01.2021 09:00:00 0,3 0,0 4 2 4 2 N 1019,3 12
14.01.2021 08:00:00 0,3 0,1 4 2 0 0 N 1019,1 12
14.01.2021 07:00:00 0,6 0,4 2 1 - - - 1019,0 10
14.01.2021 06:00:00 0,8 0,5 4 2 4 2 N 1018,7 20
14.01.2021 05:00:00 1,1 0,6 4 2 14 8 N 1018,5 20
14.01.2021 04:00:00 1,2 0,3 14 8 - - NE 1018,7 15
14.01.2021 03:00:00 2,5 1,9 11 6 18 10 N 1017,7 14
14.01.2021 02:00:00 3,2 2,6 4 2 11 6 N 1017,6 9
14.01.2021 01:00:00 3,5 2,1 4 2 - - N 1017,3 20
14.01.2021 00:00:00 3,5 1,3 11 6 14 8 W 1016,8 20
13.01.2021 23:00:00 3,4 1,2 11 6 18 10 WSW 1016,3 20
13.01.2021 22:00:00 3,2 1,4 11 6 - - WSW 1016,0 18
13.01.2021 21:00:00 3,0 1,6 11 6 14 8 WSW 1015,7 11
13.01.2021 20:00:00 3,0 1,5 11 6 18 10 WSW 1015,6 16
13.01.2021 19:00:00 2,8 1,1 11 6 - - WSW 1015,2 17
13.01.2021 18:00:00 3,0 1,1 11 6 18 10 WSW 1015,1 19
13.01.2021 17:00:00 3,6 1,2 11 6 14 8 WSW 1015,3 15
13.01.2021 16:00:00 4,4 0,8 11 6 - - W 1015,3 15
13.01.2021 15:00:00 4,6 0,8 11 6 29 16 W 1015,6 15
13.01.2021 14:00:00 4,8 0,6 18 10 32 18 W 1016,1 15
13.01.2021 13:00:00 4,3 2,0 18 10 - - WSW 1016,7 15
13.01.2021 12:00:00 3,2 1,7 22 12 32 18 WSW 1017,6 10
13.01.2021 11:00:00 2,5 1,5 14 8 22 12 SW 1018,0 10
13.01.2021 10:00:00 1,3 0,7 14 8 - - SW 1017,8 6
13.01.2021 09:00:00 1,2 0,6 14 8 22 12 SW 1018,0 8
13.01.2021 08:00:00 1,0 0,4 11 6 18 10 SW 1018,1 8
13.01.2021 07:00:00 0,8 0,2 13 7 - - WSW 1018,1 7
13.01.2021 06:00:00 1,2 0,4 14 8 18 10 WSW 1018,2 11
13.01.2021 05:00:00 1,0 0,3 11 6 18 10 WSW 1018,6 12
13.01.2021 04:00:00 1,3 0,5 14 8 - - WSW 1018,5 12
13.01.2021 03:00:00 1,1 0,4 11 6 18 10 WSW 1018,2 10
13.01.2021 02:00:00 1,1 0,4 14 8 18 10 WSW 1018,1 10
13.01.2021 01:00:00 1,3 0,6 14 8 - - WSW 1018,1 13
13.01.2021 00:00:00 0,9 0,3 11 6 18 10 WSW 1017,7 16
12.01.2021 23:00:00 1,1 0,4 14 8 14 8 WSW 1017,2 19
12.01.2021 22:00:00 0,4 0,0 7 4 - - WSW 1016,7 16
12.01.2021 21:00:00 1,3 0,6 7 4 11 6 W 1016,0 20
12.01.2021 20:00:00 2,5 0,8 4 2 22 12 N 1015,1 20
12.01.2021 19:00:00 2,1 0,1 8 4 - - WNW 1014,2 10
12.01.2021 18:00:00 3,5 -0,3 11 6 18 10 WSW 1013,3 18
12.01.2021 17:00:00 3,2 -0,5 7 4 18 10 W 1012,5 20
12.01.2021 16:00:00 5,1 -0,3 11 6 - - WNW 1011,6 20
12.01.2021 15:00:00 5,5 2,3 11 6 32 18 NNW 1010,6 10
12.01.2021 14:00:00 6,5 4,4 18 10 32 18 NNW 1009,6 15
12.01.2021 13:00:00 6,5 4,0 11 6 - - NW 1008,8 15
12.01.2021 12:00:00 6,7 4,9 11 6 29 16 NW 1008,2 10
12.01.2021 11:00:00 7,5 6,4 14 8 32 18 W 1007,2 8
12.01.2021 10:00:00 7,5 6,3 18 10 - - W 1006,2 6
12.01.2021 09:00:00 7,7 7,2 14 8 36 19 W 1005,3 6
12.01.2021 08:00:00 7,6 6,9 29 16 43 23 WSW 1005,2 8
12.01.2021 07:00:00 7,3 6,5 22 12 - - WSW 1005,3 12
12.01.2021 06:00:00 6,9 6,3 25 14 47 25 SW 1006,2 11
12.01.2021 05:00:00 6,8 6,2 25 14 43 23 SW 1007,1 10
12.01.2021 04:00:00 6,2 5,6 29 16 - - SW 1008,1 8
12.01.2021 03:00:00 5,9 5,3 25 14 40 21 SW 1009,1 9
12.01.2021 02:00:00 5,6 5,1 26 14 36 19 SW 1010,0 7
12.01.2021 01:00:00 5,5 4,9 25 14 - - SW 1011,2 4,2
12.01.2021 00:00:00 5,0 4,3 22 12 36 19 SW 1012,0 8
11.01.2021 23:00:00 4,8 3,9 22 12 36 19 SW 1012,7 8
11.01.2021 22:00:00 5,0 3,3 25 14 - - SW 1013,6 13
11.01.2021 21:00:00 4,7 2,8 25 14 40 21 SW 1014,0 15
11.01.2021 20:00:00 4,5 2,6 22 12 43 23 SW 1014,7 15
11.01.2021 19:00:00 4,4 2,7 22 12 - - SW 1015,2 15
11.01.2021 18:00:00 4,1 2,1 22 12 32 18 SW 1015,8 15
11.01.2021 17:00:00 3,7 2,1 18 10 29 16 SSW 1016,2 15
11.01.2021 16:00:00 3,5 2,3 22 12 - - SW 1017,0 15
11.01.2021 15:00:00 3,1 1,8 18 10 29 16 SW 1017,3 15
11.01.2021 14:00:00 3,0 1,4 18 10 32 18 SSW 1017,8 15
11.01.2021 13:00:00 2,9 1,2 22 12 - - SW 1019,1 15
11.01.2021 12:00:00 2,5 1,0 18 10 29 16 SW 1020,0 10
11.01.2021 11:00:00 1,8 0,6 18 10 29 16 SSW 1020,5 6
11.01.2021 10:00:00 1,0 0,3 14 8 - - SW 1020,8 4,0
11.01.2021 09:00:00 1,0 0,2 14 8 25 14 SSW 1021,1 4,0
11.01.2021 08:00:00 1,2 0,0 18 10 29 16 SSW 1021,3 7
11.01.2021 07:00:00 1,1 0,0 16 9 - - SSW 1021,6 7
11.01.2021 06:00:00 0,8 0,0 14 8 22 12 SSW 1021,8 13
11.01.2021 05:00:00 0,6 0,0 14 8 22 12 SSW 1022,2 5
11.01.2021 04:00:00 0,5 0,1 11 6 - - SW 1022,8 4,2
11.01.2021 03:00:00 0,3 0,0 14 8 22 12 SW 1023,1 2,9
11.01.2021 02:00:00 0,0 -0,6 11 6 18 10 SSW 1023,2 4,1
11.01.2021 01:00:00 -0,2 -0,6 11 6 - - SW 1023,5 3,0
11.01.2021 00:00:00 -0,2 -0,5 11 6 14 8 SW 1024,2 2,9
10.01.2021 23:00:00 -0,5 -0,7 7 4 11 6 SW 1024,0 2,3
10.01.2021 22:00:00 0,0 -0,2 7 4 - - SW 1024,2 3,3
10.01.2021 21:00:00 -0,2 -0,5 7 4 7 4 WSW 1024,5 2,8
10.01.2021 20:00:00 0,4 0,0 5 3 7 4 SSW 1024,4 1,9
10.01.2021 19:00:00 1,0 0,6 4 2 - - N 1024,2 3,3
10.01.2021 18:00:00 1,0 0,4 4 2 7 4 N 1024,5 1,8
10.01.2021 17:00:00 1,7 0,7 5 3 11 6 SSW 1024,5 7
10.01.2021 16:00:00 2,5 1,1 4 2 - - N 1024,4 15
10.01.2021 15:00:00 3,8 1,5 11 6 14 8 SW 1024,4 15
10.01.2021 14:00:00 2,2 1,2 7 4 14 8 SW 1024,5 5
10.01.2021 13:00:00 1,2 0,9 5 3 - - SSW 1024,9 4,8
10.01.2021 12:00:00 0,5 0,2 4 2 7 4 N 1025,5 2,1
10.01.2021 11:00:00 0,0 -0,1 4 2 11 6 N 1025,7 3,6
10.01.2021 10:00:00 -0,6 -0,6 4 2 - - N 1025,4 4,6
10.01.2021 09:00:00 -1,2 -1,4 4 2 7 4 N 1025,2 4,3
10.01.2021 08:00:00 -1,5 -1,7 4 2 7 4 N 1025,0 5
10.01.2021 07:00:00 -2,0 -2,0 4 2 - - N 1025,0 4,7
10.01.2021 06:00:00 -2,1 -2,2 7 4 11 6 SW 1025,0 5
10.01.2021 05:00:00 -2,2 -2,2 4 2 7 4 N 1025,2 5
10.01.2021 04:00:00 -3,0 -3,4 4 2 - - N 1025,5 4,9
10.01.2021 03:00:00 -3,4 -3,7 4 2 7 4 N 1025,7 4,5
10.01.2021 02:00:00 -3,3 -3,4 4 2 7 4 N 1025,7 3,9
10.01.2021 01:00:00 -2,7 -2,9 5 3 - - SW 1025,9 4,1
10.01.2021 00:00:00 -2,9 -3,1 4 2 7 4 N 1025,9 1,4
09.01.2021 23:00:00 -2,4 -2,4 4 2 11 6 N 1025,9 0,8
09.01.2021 22:00:00 -1,8 -1,9 8 4 - - SW 1025,7 1,2
09.01.2021 21:00:00 -1,5 -1,6 7 4 11 6 SW 1025,5 1,1
09.01.2021 20:00:00 -1,3 -1,2 4 2 11 6 N 1025,5 0,3
09.01.2021 19:00:00 -1,1 -1,1 11 6 - - SW 1025,4 0,3
09.01.2021 18:00:00 -1,1 -1,1 7 4 7 4 SW 1025,2 0,2

tt = temperature
td = dewpoint
ff = wind speed
fx = gusts
dd = wind direction
ppp = reduced air pressure
vv = visibility

Next stations